SL-16 DEB, 23707

Orbit data source: Space-Track

SL-16 DEB, 23707 is space debris in LEO originally from a launch on Tue, 31 Oct 1995 UTC launched from the Tyuratam Missile And Space Complex (TTMTR). Debris objects in space refer to the collection of defunct objects orbiting the Earth. Examples of debris include non-operational satellites, rocket bodies, and fragments generated from explosions, collisions, or faulty payload assembly.

Loading next visibility...
Identifier
23707, 1995-058D
Orbit
LEO
Country
Flag of CISCIS
Related business
Manufacturer
Yuzhnoe
Mission
Spacecraft
Bus & Motor
SEP MOTOR COVER, Unknown motor
Mass
~0 kg wet, ~1 kg dry
Launch date (UTC)
1995-10-31 (31 years ago)
Launch vehicle
Unknown
Launch site
Tyuratam Missile And Space Complex (TTMTR)
Object type
Payload
Rocket body
Debris
Shape & HBR
Unknown shape, 0.2 m
Radar Cross Section
Medium (>0.1 m² and <1 m²)

Expand to show TLE details & history
Last TLE update: 2 days ago

TLE from 2 days ago
0 SL-16 DEB
1 23707U 95058D   26171.30734801  .00000069  00000-0  10431-3 0  9996
2 23707  70.9935 127.3047 0203549 115.0395  34.3136 13.72530296533790
Epoch: 2026-06-20T07:22Z
TLE epoch observation values (Epoch: 2026-06-20T07:22:34.868Z)
Latitude
27.61633°
Longitude
-82.19045°
Altitude
870.426 km
Speed
7.481 km/s
True Right ascension
19h 47m 54s
True Declination
27° 28' 39"
Sunlit
Object was in full shadow at epoch
Visualization orbit readout
Latitude
Unknown
Longitude
Unknown
Altitude
Unknown
Speed
Unknown
Apparent Right ascension
Unknown
Apparent Declination
Unknown
Sunlit
N/A
Visualization observer readout
Local Sidereal Time
23:18:29
Azimuth
Unknown
Elevation
Unknown
Doppler factor
Unknown
Orbital elements
Apogee altitude
1,138.414 km
Perigee altitude
838.521 km
Semi-major axis
7,366.604 km
Eccentricity
0.02035
Inclination
70.9935°
RAAN
127.3047°
Arg. of periapsis
115.0395°
True anomaly
35.65656°
Mean anomaly
34.3136°
Eccentric anomaly
34.98224°
Mean motion
3.43275 °/min
Orbital period
104.87 mins
BSTAR
0.00010431
Loading maneuver chart data...
Computing Atmospheric mass density...
Loading historical data...
Loading historical data...
Loading historical data...
Loading historical data...
Loading historical data...
Loading historical data...
Loading historical data...

Documentation

Showing up to 5 results
|